Location: Cheching
(60.0667°N, 164.2167°W)
Time: 14:01:31
(UTC+00:00)

NOAA 15 - Pass Details

Date: 02 February 2021
Orbit: 798 x 812 km, 98.7° (Epoch: 05 March)

Event Time Altitude Azimuth Distance (km) Brightness Sun altitude
Rises 05:38:50 0° 172° (S) 3,311 7.7 -18.0°
Reaches altitude 10° 05:41:11 10° 176° (S) 2,386 7.0 -18.3°
Maximum altitude 05:46:24 61° 257° (WSW) 923 5.2 -18.9°
Drops below altitude 10° 05:51:41 10° 338° (NNW) 2,411 7.3 -19.6°
Sets 05:54:05 0° 342° (NNW) 3,348 8.1 -19.9°
